DW4554 Weather Reports


time (UTC)temp
F
wind
direction
speed
knots
gust
knots
rain 1hr
in
rain 24hr
in
rain mn
in
humidity
%
barometer
mb
20260507144404 68 155 1.7 5.2 0.00 0.00 0.00 56 1009.6
20260507143905 68 176 1.7 4.3 0.00 0.00 0.00 56 1009.6
20260507143404 68 215 3.5 7.0 0.00 0.00 0.00 57 1009.6
20260507142905 68 207 4.3 7.0 0.00 0.00 0.00 56 1009.6
20260507142404 67 169 2.6 6.1 0.00 0.00 0.00 57 1009.7
20260507140904 67 216 4.3 6.1 0.00 0.00 0.00 56 1009.6
20260507135905 67 227 1.7 6.1 0.00 0.00 0.00 57 1009.5
20260507135404 67 202 2.6 6.1 0.00 0.00 0.00 56 1009.6
20260507134904 67 201 1.7 4.3 0.00 0.00 0.00 56 1009.6
20260507133904 67 219 3.5 6.1 0.00 0.00 0.00 57 1009.4
20260507133404 67 211 2.6 7.0 0.00 0.00 0.00 57 1009.5
20260507132404 68 233 4.3 10.4 0.00 0.00 0.00 56 1009.6
20260507131906 68 220 5.2 7.8 0.00 0.00 0.00 55 1009.7
20260507131404 68 222 4.3 7.8 0.00 0.00 0.00 56 1009.6
20260507130904 69 224 3.5 11.3 0.00 0.00 0.00 56 1009.6
20260507130404 69 221 6.1 10.4 0.00 0.00 0.00 54 1009.6
20260507125904 69 219 5.2 10.4 0.00 0.00 0.00 55 1009.6
20260507125405 69 222 6.1 10.4 0.00 0.00 0.00 56 1009.6
20260507124905 69 209 4.3 10.4 0.00 0.00 0.00 58 1009.6
20260507124404 69 244 5.2 13.0 0.00 0.00 0.00 60 1009.7
20260507123904 69 214 6.1 11.3 0.00 0.00 0.00 59 1009.7
20260507123404 69 248 6.1 10.4 0.00 0.00 0.00 58 1009.6
20260507122904 69 225 5.2 10.4 0.00 0.00 0.00 59 1009.6
20260507122404 69 250 5.2 8.7 0.00 0.00 0.00 58 1009.5
20260507121904 69 229 6.1 11.3 0.00 0.00 0.00 59 1009.6
20260507121404 69 233 5.2 10.4 0.00 0.00 0.00 58 1009.6
20260507120904 69 223 6.1 13.0 0.00 0.00 0.00 57 1009.7
20260507115904 69 235 6.1 12.2 0.00 0.00 0.00 58 1009.7
20260507115404 69 224 6.1 13.0 0.00 0.00 0.00 59 1009.7
20260507114904 69 239 5.2 14.8 0.00 0.00 0.00 60 1009.7
20260507114404 69 234 5.2 14.8 0.00 0.00 0.00 59 1009.7
20260507113904 69 216 4.3 10.4 0.00 0.00 0.00 59 1009.7
20260507113404 69 220 5.2 10.4 0.00 0.00 0.00 59 1009.7
20260507112905 69 227 5.2 10.4 0.00 0.00 0.00 58 1009.7
20260507112404 69 216 6.1 11.3 0.00 0.00 0.00 60 1009.7
20260507111905 69 196 4.3 13.9 0.00 0.00 0.00 59 1009.7